[[{"header":{"parameterUnit":"m.s-1","parameterCategory":1,"la1":30.2991,"la2":30.254,"lo1":-89.0895,"lo2":-89.0444,"dy":0.0017,"dx":0.0017,"nx":28,"ny":28,"refTime":"2024-03-02T09:00:00:Z","depth":0,"parameterNumber":2,"parameterNumberName":"U-component_of_WINDS"},"data":[0,0,0,0,0,0,0,0,0,0,0,0,0,0,0,0,0,0,0,0,0,0,0,0,0,0,0,0,0,0,0,0,0,0,0,0,0,0,0,0,0,0,0,0,0,0,0,0,0,0,0,0,0,0,0,0,0,0,-0.8389,-0.8389,0,-0.8376,-0.8375,-0.8375,-0.833,-0.8329,-0.8328,-0.8327,-0.8316,-0.8317,-0.8317,0,0,0,0,0,0,0,0,0,0,0,0,0,-0.8377,-0.8378,-0.8389,-0.8389,-0.8389,-0.8376,-0.8375,-0.8375,-0.833,-0.8329,-0.8328,-0.8327,-0.8316,-0.8316,-0.8317,0,0,0,0,0,0,0,0,0,0,0,0,0,-0.8375,-0.8378,-0.8389,-0.8365,-0.8362,-0.8376,-0.8375,-0.8375,-0.8331,-0.8329,-0.8328,-0.8326,-0.8315,-0.8316,-0.8317,-0.8354,0,0,-0.832,-0.8321,0,0,0,0,0,0,0,0,-0.8375,-0.8376,-0.8368,-0.8366,-0.8364,-0.8353,-0.8367,-0.8368,-0.8331,-0.8343,-0.8327,-0.8325,-0.833,-0.8329,-0.833,-0.8353,-0.8353,-0.832,-0.8321,-0.8321,-0.8322,0,0,0,0,0,0,0,-0.8375,-0.8376,-0.8384,-0.8368,-0.8365,-0.8355,-0.8353,-0.8367,-0.8345,-0.8342,-0.8338,-0.8337,-0.8328,-0.8329,-0.833,-0.8353,-0.832,-0.8321,-0.8322,-0.8322,-0.8405,-0.8407,0,0,0,0,0,0,-0.8379,-0.8376,-0.8384,-0.8383,-0.8366,-0.8356,-0.8354,-0.8358,-0.8345,-0.8341,-0.8338,-0.8335,-0.8328,-0.8329,-0.8329,-0.8371,-0.8321,-0.8322,-0.8323,-0.8404,-0.8406,-0.8407,0,0,0,0,0,0,-0.8379,-0.838,-0.8385,-0.8379,-0.8379,-0.8358,-0.8363,-0.8358,-0.836,-0.8342,-0.8338,-0.8344,-0.8327,-0.8328,-0.8348,-0.837,-0.8323,-0.8324,-0.8402,-0.8404,-0.8407,-0.8456,0,0,0,0,0,0,-0.8379,-0.838,-0.8394,-0.8379,-0.8379,-0.8403,-0.8364,-0.8359,-0.8361,-0.8357,-0.8346,-0.8343,-0.8326,-0.8347,-0.8349,-0.8371,-0.8324,-0.84,-0.8403,-0.8406,-0.8453,-0.846,-0.8467,0,0,0,0,0,-0.8378,-0.8409,-0.8394,-0.8396,-0.8395,-0.8405,-0.8405,-0.8384,-0.8363,-0.8377,-0.8365,-0.8343,-0.8367,-0.8349,-0.8351,-0.8374,-0.8398,-0.8402,-0.8406,-0.8449,-0.8459,-0.8466,0,0,0,0,0,0,-0.8427,-0.8406,-0.839,-0.8417,-0.8413,-0.8397,-0.8414,-0.8394,-0.8397,-0.8392,-0.8367,-0.8365,-0.8389,-0.8383,-0.8363,-0.8409,-0.8379,-0.8383,-0.8412,-0.842,-0.8427,-0.8429,-0.8325,0,0,0,0,0,-0.8441,-0.8449,-0.8431,-0.8456,-0.8455,-0.8435,-0.8438,-0.8422,-0.8417,-0.8416,-0.8406,-0.8402,-0.8409,-0.8414,-0.8419,-0.8451,-0.8448,-0.8467,-0.8474,-0.848,-0.8485,-0.8501,-0.851,-0.8419,-0.8419,-0.8419,0,0,-0.8469,-0.8459,-0.8466,-0.8466,-0.8461,-0.8471,-0.8434,-0.8446,-0.8454,-0.8418,-0.8436,-0.8429,-0.8423,-0.845,-0.8461,-0.8446,-0.8509,-0.8485,-0.849,-0.8491,-0.8506,-0.8515,-0.8522,-0.8422,-0.8421,-0.8421,0,0,-0.8527,-0.852,-0.854,-0.8535,-0.8528,-0.8514,-0.8519,-0.8506,-0.8499,-0.8517,-0.849,-0.8499,-0.8511,-0.8508,-0.8508,-0.8564,-0.8544,-0.8566,-0.8604,-0.862,-0.8627,-0.8633,-0.8654,-0.8662,-0.8571,-0.8571,-0.8571,0,-0.8564,-0.8578,-0.8553,-0.8567,-0.8568,-0.8534,-0.8555,-0.8552,-0.8547,-0.8549,-0.8531,-0.8545,-0.8539,-0.8565,-0.8578,-0.8579,-0.8584,-0.8568,-0.8628,-0.8634,-0.8639,-0.8659,-0.8667,-0.8573,-0.8573,-0.8573,-0.8573,0,-0.8624,-0.8634,-0.8651,-0.8646,-0.8648,-0.8666,-0.8644,-0.865,-0.8634,-0.8622,-0.8641,-0.8632,-0.8635,-0.8639,-0.8624,-0.8662,-0.8653,-0.8632,-0.8602,-0.8651,-0.8669,-0.8676,-0.8578,-0.8577,-0.8576,-0.8575,0,0,-0.8713,-0.8693,-0.87,-0.8698,-0.8686,-0.8694,-0.8709,-0.8711,-0.8717,-0.8714,-0.8727,-0.8738,-0.8718,-0.8718,-0.8702,-0.8716,-0.8762,-0.8694,-0.8693,-0.8708,-0.8805,-0.8821,-0.883,-0.8748,-0.8749,-0.875,-0.8805,0,-0.8769,-0.8794,-0.8772,-0.8802,-0.8811,-0.8779,-0.8793,-0.8788,-0.8777,-0.8783,-0.8771,-0.8779,-0.8752,-0.8752,-0.8765,-0.8754,-0.8781,-0.8749,-0.8761,-0.8762,-0.8765,-0.8839,-0.8857,-0.891,-0.8812,-0.8813,-0.8814,0,-0.8837,-0.8837,-0.8867,-0.8853,-0.8856,-0.8869,-0.8869,-0.8875,-0.8869,-0.886,-0.886,-0.8839,-0.8854,-0.8824,-0.8845,-0.8824,-0.8827,-0.8822,-0.8823,-0.8825,-0.8792,-0.8844,-0.8926,-0.8934,-0.8825,-0.8824,-0.8823,0,-0.89,-0.8907,-0.8926,-0.8925,-0.8909,-0.8919,-0.8913,-0.8905,-0.8907,-0.8907,-0.8909,-0.8911,-0.8912,-0.8914,-0.8895,-0.8875,-0.8919,-0.8887,-0.8913,-0.8913,-0.8925,-0.8924,-0.901,-0.8925,-0.8925,-0.8925,-0.8924,0,-0.8965,-0.8986,-0.8955,-0.8967,-0.8988,-0.8963,-0.8985,-0.8976,-0.8969,-0.8979,-0.8951,-0.8961,-0.8934,-0.8942,-0.8927,-0.8947,-0.8948,-0.8942,-0.8938,-0.8945,-0.8946,-0.8948,-0.8944,-0.8927,-0.8926,-0.8926,-0.8925,0,-0.9041,-0.902,-0.9039,-0.9022,-0.9018,-0.9035,-0.9021,-0.9032,-0.9018,-0.9032,-0.9033,-0.9013,-0.902,-0.9001,-0.9005,-0.8995,-0.9024,-0.9014,-0.9026,-0.9024,-0.9051,-0.9049,-0.9142,-0.9153,-0.906,-0.9061,-0.9062,0,-0.9084,-0.9099,-0.9083,-0.9087,-0.9082,-0.909,-0.9092,-0.9067,-0.907,-0.9063,-0.9075,-0.908,-0.9083,-0.9096,-0.9082,-0.9085,-0.9076,-0.9108,-0.9076,-0.9083,-0.9077,-0.9077,-0.9079,-0.9115,-0.9116,-0.9117,-0.9117,0,-0.9163,-0.9152,-0.9156,-0.9156,-0.9159,-0.9158,-0.9155,-0.916,-0.9134,-0.9139,-0.9146,-0.9148,-0.9152,-0.9157,-0.9157,-0.9152,-0.9131,-0.9127,-0.9134,-0.9142,-0.9149,-0.9146,-0.9046,-0.9126,-0.9125,-0.9124,-0.9124,-0.9123,-0.9225,-0.9236,-0.9227,-0.9232,-0.9226,-0.9224,-0.9233,-0.9221,-0.9226,-0.9227,-0.9211,-0.9222,-0.9214,-0.9212,-0.9209,-0.9217,-0.9202,-0.9211,-0.9214,-0.9217,-0.9222,-0.9146,-0.9216,-0.9216,-0.9216,-0.9216,-0.9216,0,-0.9303,-0.9295,-0.93,-0.9296,-0.93,-0.9278,-0.9274,-0.9279,-0.9288,-0.9282,-0.9285,-0.9293,-0.9298,-0.9284,-0.9287,-0.9296,-0.9286,-0.9298,-0.9298,-0.9297,-0.9234,-0.9229,-0.9305,-0.9305,-0.9305,-0.9305,-0.9305,-0.9305,-0.9345,-0.9364,-0.9351,-0.9367,-0.9359,-0.9368,-0.9367,-0.9365,-0.9361,-0.9371,-0.9374,-0.9364,-0.9356,-0.9358,-0.9361,-0.9357,-0.936,-0.9375,-0.9368,-0.931,-0.9301,-0.9293,-0.9288,-0.9376,-0.9376,-0.943,-0.9431,-0.9431]},{"header":{"parameterUnit":"m.s-1","parameterCategory":1,"la1":30.2991,"la2":30.254,"lo1":-89.0895,"lo2":-89.0444,"dy":0.0017,"dx":0.0017,"nx":28,"ny":28,"refTime":"2024-03-02T09:00:00:Z","depth":0,"parameterNumber":3,"parameterNumberName":"V-component_of_WINDS"},"data":[0,0,0,0,0,0,0,0,0,0,0,0,0,0,0,0,0,0,0,0,0,0,0,0,0,0,0,0,0,0,0,0,0,0,0,0,0,0,0,0,0,0,0,0,0,0,0,0,0,0,0,0,0,0,0,0,0,0,-1.0667,-1.0667,0,-1.0703,-1.0703,-1.0703,-1.0702,-1.0702,-1.0701,-1.0701,-1.0736,-1.0737,-1.0739,0,0,0,0,0,0,0,0,0,0,0,0,0,-1.0596,-1.0597,-1.0667,-1.0667,-1.0668,-1.0702,-1.0703,-1.0703,-1.0702,-1.0702,-1.0701,-1.0701,-1.0736,-1.0737,-1.0739,0,0,0,0,0,0,0,0,0,0,0,0,0,-1.0629,-1.0598,-1.0667,-1.0672,-1.0672,-1.0702,-1.0703,-1.0704,-1.0703,-1.0702,-1.0701,-1.07,-1.0735,-1.0737,-1.0739,-1.0767,0,0,-1.0746,-1.0746,0,0,0,0,0,0,0,0,-1.0627,-1.0631,-1.067,-1.0671,-1.0672,-1.0697,-1.0691,-1.0725,-1.0703,-1.0691,-1.0701,-1.07,-1.0724,-1.0727,-1.0735,-1.0768,-1.077,-1.0746,-1.0747,-1.0748,-1.0749,0,0,0,0,0,0,0,-1.0625,-1.063,-1.0681,-1.0671,-1.0672,-1.0671,-1.0675,-1.0697,-1.0711,-1.0692,-1.0692,-1.0696,-1.0724,-1.0733,-1.0736,-1.077,-1.0746,-1.0748,-1.0749,-1.075,-1.0827,-1.0828,0,0,0,0,0,0,-1.0622,-1.0628,-1.068,-1.0682,-1.0647,-1.0673,-1.0677,-1.069,-1.0711,-1.0713,-1.0697,-1.0696,-1.073,-1.0733,-1.0737,-1.077,-1.0748,-1.075,-1.0751,-1.0826,-1.0827,-1.0828,0,0,0,0,0,0,-1.062,-1.0626,-1.0678,-1.0655,-1.0662,-1.0675,-1.0689,-1.0691,-1.07,-1.0714,-1.0717,-1.0704,-1.0729,-1.0734,-1.0759,-1.0771,-1.0751,-1.0753,-1.0825,-1.0826,-1.0828,-1.0837,0,0,0,0,0,0,-1.0618,-1.0626,-1.0637,-1.0655,-1.0663,-1.0701,-1.069,-1.0692,-1.0704,-1.0703,-1.0721,-1.0724,-1.0729,-1.0756,-1.0761,-1.0774,-1.0754,-1.0824,-1.0826,-1.0827,-1.0835,-1.0838,-1.084,0,0,0,0,0,-1.0616,-1.0638,-1.0637,-1.0644,-1.0677,-1.0701,-1.0706,-1.0712,-1.0705,-1.0716,-1.0725,-1.0723,-1.0769,-1.0759,-1.0764,-1.0778,-1.0823,-1.0825,-1.0827,-1.0834,-1.0838,-1.084,0,0,0,0,0,0,-1.062,-1.0641,-1.064,-1.0669,-1.0684,-1.0701,-1.0715,-1.0715,-1.0732,-1.073,-1.0737,-1.0741,-1.0766,-1.0774,-1.0762,-1.0805,-1.0795,-1.0798,-1.0799,-1.0802,-1.0804,-1.0802,-1.0756,0,0,0,0,0,-1.0625,-1.0643,-1.066,-1.0684,-1.0691,-1.0702,-1.0713,-1.0716,-1.0731,-1.0737,-1.0748,-1.0762,-1.078,-1.0791,-1.0808,-1.0836,-1.084,-1.0848,-1.0851,-1.0853,-1.0855,-1.087,-1.0874,-1.0834,-1.0834,-1.0834,0,0,-1.0634,-1.0648,-1.0659,-1.0685,-1.0697,-1.0715,-1.0707,-1.0727,-1.0741,-1.074,-1.0764,-1.0773,-1.0789,-1.0816,-1.0828,-1.0823,-1.0867,-1.0855,-1.0857,-1.0858,-1.0873,-1.0876,-1.088,-1.0835,-1.0835,-1.0835,0,0,-1.0661,-1.0673,-1.0694,-1.0706,-1.0723,-1.073,-1.0735,-1.0753,-1.0758,-1.0783,-1.0783,-1.0798,-1.0829,-1.084,-1.085,-1.088,-1.0878,-1.0885,-1.0898,-1.0912,-1.0916,-1.0918,-1.0929,-1.0932,-1.0887,-1.0887,-1.0887,0,-1.0671,-1.0699,-1.0705,-1.0725,-1.0736,-1.0736,-1.0758,-1.0768,-1.079,-1.0798,-1.0792,-1.083,-1.0841,-1.087,-1.0877,-1.0885,-1.089,-1.0883,-1.0915,-1.0918,-1.092,-1.093,-1.0934,-1.0888,-1.0888,-1.0888,-1.0888,0,-1.071,-1.0729,-1.0744,-1.0765,-1.0778,-1.0799,-1.0807,-1.0819,-1.0821,-1.0828,-1.0853,-1.0866,-1.0885,-1.0892,-1.0894,-1.0921,-1.0918,-1.0913,-1.0904,-1.0925,-1.0934,-1.0938,-1.0889,-1.0889,-1.0889,-1.0888,0,0,-1.0741,-1.0765,-1.0771,-1.078,-1.0799,-1.0814,-1.0834,-1.0853,-1.0863,-1.0878,-1.0894,-1.0919,-1.0915,-1.0926,-1.0929,-1.0942,-1.0964,-1.0936,-1.0937,-1.0941,-1.0994,-1.0997,-1.1002,-1.0963,-1.0964,-1.0965,-1.0993,0,-1.077,-1.0806,-1.0812,-1.0843,-1.0861,-1.0861,-1.0878,-1.0891,-1.0898,-1.0913,-1.0921,-1.0938,-1.0932,-1.0938,-1.0951,-1.0959,-1.0975,-1.0957,-1.0978,-1.0979,-1.0975,-1.1007,-1.1011,-1.1037,-1.0997,-1.0997,-1.0998,0,-1.0809,-1.0825,-1.0858,-1.0874,-1.0881,-1.0897,-1.0914,-1.0929,-1.0944,-1.0948,-1.096,-1.0961,-1.0981,-1.097,-1.0997,-1.0984,-1.0993,-1.0998,-1.1,-1.1002,-1.099,-1.101,-1.1045,-1.1049,-1.1004,-1.1003,-1.1003,0,-1.0828,-1.0858,-1.0882,-1.089,-1.0909,-1.092,-1.0928,-1.0942,-1.0952,-1.0967,-1.0974,-1.0991,-1.1001,-1.1013,-1.1019,-1.1011,-1.1045,-1.1035,-1.1049,-1.1049,-1.1057,-1.1056,-1.1094,-1.1062,-1.1062,-1.1062,-1.1062,0,-1.086,-1.0881,-1.0891,-1.0906,-1.0928,-1.0933,-1.0955,-1.0963,-1.0975,-1.0991,-1.0991,-1.1006,-1.1012,-1.1027,-1.1031,-1.1053,-1.1057,-1.106,-1.1061,-1.1061,-1.106,-1.1067,-1.1065,-1.1063,-1.1063,-1.1063,-1.1062,0,-1.0886,-1.0894,-1.092,-1.0936,-1.094,-1.0956,-1.0969,-1.0983,-1.0989,-1.1008,-1.1013,-1.1023,-1.1041,-1.1048,-1.1069,-1.1072,-1.1097,-1.1096,-1.1092,-1.1092,-1.1106,-1.1105,-1.1149,-1.1155,-1.1119,-1.112,-1.112,0,-1.0906,-1.0922,-1.0939,-1.095,-1.0959,-1.0976,-1.0987,-1.0992,-1.1003,-1.102,-1.1032,-1.105,-1.1064,-1.1092,-1.1101,-1.1117,-1.1117,-1.1132,-1.112,-1.1118,-1.1117,-1.1116,-1.1118,-1.1134,-1.1134,-1.1135,-1.1135,0,-1.0941,-1.0944,-1.096,-1.0977,-1.099,-1.1004,-1.1017,-1.1026,-1.1033,-1.1046,-1.1064,-1.1075,-1.1097,-1.1115,-1.1131,-1.1139,-1.1138,-1.1138,-1.1142,-1.1142,-1.1139,-1.1141,-1.1098,-1.1138,-1.1137,-1.1137,-1.1137,-1.1137,-1.0965,-1.0978,-1.0992,-1.101,-1.1021,-1.1033,-1.1046,-1.1054,-1.107,-1.1088,-1.109,-1.111,-1.1123,-1.1145,-1.1153,-1.1168,-1.1164,-1.117,-1.1171,-1.1173,-1.1174,-1.1136,-1.1171,-1.1171,-1.1171,-1.1171,-1.1171,0,-1.0999,-1.1008,-1.1024,-1.1043,-1.1056,-1.1054,-1.1069,-1.108,-1.1097,-1.111,-1.1124,-1.1144,-1.1161,-1.1171,-1.1187,-1.1197,-1.1197,-1.1201,-1.1201,-1.1202,-1.1176,-1.1171,-1.1201,-1.1201,-1.1201,-1.1201,-1.1201,-1.1201,-1.1019,-1.1042,-1.1046,-1.1074,-1.1082,-1.1102,-1.111,-1.1121,-1.1131,-1.1154,-1.1168,-1.1174,-1.1185,-1.1202,-1.1217,-1.1219,-1.1225,-1.123,-1.1231,-1.1207,-1.1204,-1.1201,-1.1196,-1.1231,-1.1231,-1.1256,-1.1256,-1.1256]}]]